GFSMA_prec_precacc24_021.txt.gz
Total_Precipitation_Accumulation
0.00 0.00 0.00 0.00 0.00 0.00 0.03 0.04 0.06 0.12 0.14 0.13 0.11 0.11 0.07 0.05 0.03 0.01 0.00 0.01 0.01 0.01 0.00 0.00 0.04 0.17 0.27 0.28 0.25 0.20 0.18 0.17 0.17 0.17 0.16 0.13 0.08 0.05 0.05 0.03 0.02 0.01 0.00
0.00 0.00 0.00 0.00 0.00 0.01 0.01 0.02 0.03 0.04 0.05 0.06 0.10 0.10 0.06 0.05 0.03 0.03 0.02 0.02 0.02 0.01 0.00 0.01 0.01 0.08 0.22 0.26 0.31 0.30 0.27 0.22 0.18 0.18 0.17 0.14 0.11 0.09 0.06 0.05 0.04 0.02 0.01
0.00 0.00 0.00 0.00 0.00 0.00 0.00 0.00 0.00 0.02 0.04 0.07 0.12 0.19 0.16 0.09 0.06 0.05 0.04 0.05 0.06 0.08 0.07 0.01 0.00 0.03 0.10 0.19 0.25 0.24 0.23 0.26 0.22 0.19 0.20 0.16 0.11 0.10 0.08 0.06 0.06 0.04 0.02
0.00 0.00 0.00 0.00 0.00 0.00 0.00 0.00 0.00 0.00 0.01 0.04 0.05 0.04 0.02 0.04 0.04 0.03 0.02 0.03 0.07 0.11 0.16 0.15 0.08 0.04 0.05 0.07 0.14 0.20 0.26 0.24 0.23 0.25 0.22 0.17 0.13 0.13 0.12 0.10 0.08 0.07 0.05
0.00 0.00 0.00 0.00 0.00 0.00 0.00 0.00 0.00 0.00 0.00 0.00 0.00 0.01 0.01 0.01 0.02 0.03 0.02 0.01 0.01 0.03 0.08 0.10 0.13 0.13 0.11 0.11 0.12 0.16 0.22 0.29 0.41 0.37 0.34 0.36 0.35 0.24 0.16 0.12 0.11 0.08 0.07
0.00 0.00 0.00 0.00 0.00 0.00 0.00 0.00 0.00 0.00 0.00 0.00 0.00 0.00 0.00 0.02 0.02 0.03 0.03 0.02 0.02 0.02 0.02 0.04 0.05 0.07 0.11 0.19 0.26 0.26 0.26 0.22 0.23 0.50 0.97 1.03 0.66 0.52 0.51 0.41 0.24 0.15 0.11
0.00 0.00 0.00 0.00 0.00 0.00 0.00 0.00 0.00 0.00 0.00 0.00 0.00 0.00 0.00 0.00 0.01 0.04 0.05 0.08 0.08 0.07 0.05 0.05 0.06 0.04 0.04 0.09 0.17 0.30 0.37 0.37 0.33 0.30 0.32 0.80 1.47 1.23 0.78 0.62 0.61 0.46 0.30
0.00 0.00 0.00 0.00 0.00 0.00 0.00 0.00 0.00 0.00 0.00 0.00 0.00 0.00 0.00 0.00 0.00 0.01 0.03 0.07 0.08 0.10 0.11 0.07 0.08 0.07 0.03 0.02 0.02 0.07 0.21 0.48 0.54 0.42 0.42 0.60 0.73 1.00 1.13 0.88 0.75 0.75 0.73
0.00 0.00 0.00 0.00 0.00 0.00 0.00 0.00 0.00 0.00 0.00 0.00 0.00 0.00 0.00 0.00 0.00 0.00 0.01 0.02 0.05 0.05 0.06 0.07 0.06 0.09 0.06 0.04 0.05 0.06 0.06 0.09 0.17 0.28 0.32 0.45 0.85 1.36 1.23 0.99 0.66 0.52 0.54
0.00 0.00 0.00 0.00 0.00 0.00 0.00 0.00 0.00 0.00 0.00 0.00 0.00 0.00 0.00 0.00 0.00 0.00 0.00 0.00 0.01 0.02 0.04 0.04 0.04 0.04 0.07 0.07 0.10 0.14 0.08 0.04 0.06 0.10 0.17 0.29 0.45 0.63 1.06 1.35 1.26 0.90 0.60
0.00 0.00 0.00 0.00 0.00 0.00 0.00 0.00 0.00 0.00 0.00 0.00 0.00 0.00 0.00 0.00 0.00 0.00 0.00 0.00 0.00 0.00 0.01 0.04 0.05 0.06 0.06 0.06 0.04 0.03 0.05 0.07 0.06 0.05 0.11 0.16 0.31 0.50 0.67 0.74 0.81 1.04 1.06
0.00 0.00 0.00 0.00 0.00 0.00 0.00 0.00 0.00 0.00 0.00 0.00 0.00 0.00 0.00 0.00 0.00 0.01 0.01 0.00 0.00 0.00 0.00 0.00 0.01 0.03 0.04 0.07 0.06 0.04 0.03 0.02 0.06 0.09 0.10 0.14 0.16 0.29 0.46 0.71 0.84 0.69 0.70
0.00 0.00 0.00 0.00 0.00 0.00 0.00 0.00 0.01 0.01 0.02 0.06 0.08 0.13 0.20 0.24 0.24 0.18 0.11 0.02 0.00 0.00 0.00 0.00 0.00 0.00 0.01 0.08 0.13 0.08 0.02 0.01 0.01 0.04 0.11 0.15 0.15 0.20 0.37 0.56 0.71 0.94 0.93
0.00 0.00 0.00 0.00 0.00 0.00 0.01 0.07 0.11 0.17 0.31 0.41 0.43 0.42 0.37 0.29 0.21 0.12 0.07 0.03 0.01 0.00 0.00 0.00 0.00 0.00 0.00 0.01 0.08 0.14 0.09 0.05 0.05 0.05 0.07 0.12 0.19 0.21 0.21 0.35 0.60 0.70 0.74
0.00 0.00 0.00 0.01 0.03 0.09 0.15 0.19 0.20 0.24 0.25 0.21 0.17 0.14 0.11 0.08 0.06 0.04 0.02 0.01 0.01 0.00 0.00 0.00 0.00 0.00 0.00 0.02 0.04 0.15 0.24 0.19 0.14 0.12 0.12 0.12 0.12 0.20 0.36 0.36 0.38 0.58 0.81
0.00 0.00 0.04 0.12 0.18 0.16 0.11 0.09 0.07 0.04 0.02 0.02 0.01 0.01 0.01 0.00 0.00 0.00 0.00 0.00 0.00 0.00 0.00 0.00 0.00 0.00 0.00 0.03 0.07 0.15 0.31 0.41 0.25 0.19 0.20 0.20 0.21 0.20 0.19 0.37 0.62 0.64 0.66
0.01 0.05 0.09 0.08 0.03 0.02 0.01 0.00 0.00 0.00 0.00 0.00 0.00 0.00 0.00 0.00 0.00 0.00 0.01 0.01 0.01 0.01 0.01 0.00 0.00 0.00 0.00 0.01 0.03 0.10 0.22 0.41 0.52 0.36 0.23 0.25 0.27 0.28 0.31 0.26 0.32 0.66 0.93
0.00 0.00 0.00 0.03 0.05 0.03 0.00 0.00 0.00 0.00 0.00 0.00 0.00 0.00 0.00 0.00 0.00 0.00 0.01 0.01 0.01 0.01 0.02 0.00 0.00 0.00 0.00 0.00 0.00 0.02 0.10 0.24 0.42 0.53 0.49 0.31 0.24 0.28 0.33 0.43 0.42 0.38 0.49
0.00 0.02 0.05 0.03 0.01 0.00 0.00 0.00 0.00 0.00 0.00 0.00 0.00 0.00 0.00 0.00 0.00 0.00 0.00 0.01 0.01 0.01 0.01 0.01 0.00 0.00 0.00 0.00 0.00 0.01 0.03 0.07 0.16 0.30 0.43 0.55 0.44 0.27 0.25 0.30 0.39 0.48 0.43
0.02 0.02 0.01 0.00 0.00 0.00 0.00 0.00 0.00 0.00 0.00 0.00 0.00 0.00 0.00 0.00 0.00 0.00 0.00 0.00 0.01 0.02 0.02 0.02 0.00 0.00 0.00 0.00 0.01 0.02 0.03 0.05 0.05 0.13 0.30 0.49 0.55 0.48 0.31 0.23 0.27 0.30 0.38
0.01 0.01 0.00 0.00 0.00 0.00 0.00 0.00 0.00 0.00 0.00 0.00 0.00 0.00 0.00 0.00 0.00 0.00 0.00 0.00 0.01 0.02 0.02 0.03 0.02 0.02 0.01 0.01 0.02 0.03 0.03 0.04 0.06 0.08 0.18 0.36 0.52 0.59 0.60 0.37 0.21 0.23 0.29
0.01 0.00 0.00 0.00 0.00 0.00 0.00 0.00 0.00 0.00 0.00 0.00 0.01 0.00 0.00 0.00 0.00 0.00 0.00 0.00 0.00 0.02 0.05 0.06 0.05 0.04 0.02 0.01 0.02 0.05 0.06 0.04 0.05 0.07 0.10 0.23 0.39 0.51 0.65 0.67 0.48 0.34 0.27
0.00 0.00 0.00 0.00 0.00 0.00 0.00 0.00 0.00 0.00 0.01 0.01 0.01 0.01 0.01 0.00 0.00 0.01 0.00 0.01 0.01 0.01 0.02 0.03 0.07 0.04 0.03 0.01 0.03 0.08 0.07 0.06 0.04 0.03 0.07 0.16 0.29 0.40 0.48 0.67 0.71 0.51 0.44
0.00 0.00 0.00 0.00 0.00 0.00 0.00 0.00 0.00 0.01 0.01 0.01 0.01 0.01 0.01 0.01 0.01 0.01 0.03 0.06 0.04 0.02 0.01 0.00 0.01 0.01 0.00 0.01 0.03 0.05 0.08 0.08 0.05 0.02 0.05 0.13 0.21 0.32 0.36 0.44 0.66 0.85 0.73
0.00 0.00 0.00 0.00 0.00 0.00 0.00 0.00 0.00 0.04 0.05 0.02 0.01 0.01 0.02 0.04 0.02 0.01 0.13 0.26 0.12 0.04 0.02 0.03 0.02 0.01 0.01 0.01 0.02 0.13 0.17 0.18 0.13 0.04 0.04 0.08 0.11 0.21 0.34 0.48 0.62 0.69 0.88
0.00 0.00 0.00 0.00 0.00 0.00 0.00 0.00 0.01 0.12 0.17 0.07 0.04 0.02 0.02 0.02 0.02 0.04 0.22 0.29 0.26 0.06 0.02 0.04 0.05 0.03 0.02 0.02 0.03 0.17 0.24 0.20 0.15 0.12 0.04 0.06 0.07 0.11 0.27 0.44 0.47 0.68 0.79

GFSMA_prec_precacc24_024.txt.gz
Total_Precipitation_Accumulation
0.00 0.00 0.00 0.00 0.00 0.00 0.03 0.04 0.06 0.12 0.14 0.13 0.11 0.11 0.07 0.05 0.03 0.01 0.00 0.01 0.01 0.01 0.00 0.00 0.04 0.17 0.27 0.28 0.25 0.20 0.19 0.18 0.22 0.25 0.22 0.16 0.11 0.08 0.07 0.04 0.02 0.01 0.00
0.00 0.00 0.00 0.00 0.00 0.01 0.01 0.02 0.03 0.04 0.05 0.06 0.10 0.10 0.06 0.05 0.03 0.03 0.02 0.02 0.02 0.01 0.00 0.01 0.01 0.08 0.22 0.26 0.31 0.30 0.27 0.22 0.19 0.22 0.23 0.17 0.16 0.17 0.11 0.07 0.05 0.03 0.01
0.00 0.00 0.00 0.00 0.00 0.00 0.00 0.00 0.00 0.02 0.04 0.07 0.12 0.19 0.16 0.09 0.06 0.05 0.04 0.05 0.06 0.08 0.07 0.01 0.00 0.03 0.10 0.19 0.25 0.24 0.23 0.26 0.22 0.20 0.22 0.18 0.14 0.16 0.16 0.12 0.10 0.07 0.04
0.00 0.00 0.00 0.00 0.00 0.00 0.00 0.00 0.00 0.00 0.01 0.04 0.05 0.04 0.02 0.04 0.04 0.03 0.02 0.03 0.07 0.11 0.16 0.15 0.08 0.04 0.05 0.07 0.14 0.20 0.26 0.24 0.23 0.25 0.23 0.18 0.15 0.16 0.17 0.16 0.14 0.12 0.09
0.00 0.00 0.00 0.00 0.00 0.00 0.00 0.00 0.00 0.00 0.00 0.00 0.00 0.01 0.01 0.01 0.02 0.03 0.02 0.01 0.01 0.03 0.08 0.10 0.13 0.13 0.11 0.11 0.12 0.16 0.22 0.29 0.42 0.37 0.34 0.37 0.36 0.24 0.18 0.16 0.17 0.15 0.12
0.00 0.00 0.00 0.00 0.00 0.00 0.00 0.00 0.00 0.00 0.00 0.00 0.00 0.00 0.00 0.02 0.02 0.03 0.03 0.02 0.02 0.02 0.02 0.04 0.05 0.07 0.11 0.19 0.26 0.26 0.26 0.22 0.23 0.50 0.97 1.03 0.66 0.53 0.52 0.42 0.28 0.22 0.21
0.00 0.00 0.00 0.00 0.00 0.00 0.00 0.00 0.00 0.00 0.00 0.00 0.00 0.00 0.00 0.00 0.01 0.04 0.05 0.08 0.08 0.07 0.05 0.05 0.06 0.04 0.04 0.09 0.17 0.30 0.37 0.37 0.33 0.30 0.32 0.80 1.47 1.23 0.78 0.62 0.62 0.48 0.36
0.00 0.00 0.00 0.00 0.00 0.00 0.00 0.00 0.00 0.00 0.00 0.00 0.00 0.00 0.00 0.00 0.00 0.01 0.03 0.07 0.08 0.10 0.11 0.07 0.08 0.07 0.03 0.02 0.02 0.07 0.21 0.48 0.54 0.42 0.42 0.60 0.73 1.00 1.13 0.88 0.75 0.75 0.74
0.00 0.00 0.00 0.00 0.00 0.00 0.00 0.00 0.00 0.00 0.00 0.00 0.00 0.00 0.00 0.00 0.00 0.00 0.01 0.02 0.05 0.05 0.06 0.07 0.06 0.09 0.06 0.04 0.05 0.06 0.06 0.09 0.17 0.28 0.32 0.45 0.85 1.36 1.23 0.99 0.66 0.52 0.54
0.00 0.00 0.00 0.00 0.00 0.00 0.00 0.00 0.00 0.00 0.00 0.00 0.00 0.00 0.00 0.00 0.00 0.00 0.00 0.00 0.01 0.02 0.04 0.04 0.04 0.04 0.07 0.07 0.10 0.14 0.08 0.04 0.06 0.10 0.17 0.29 0.45 0.63 1.06 1.35 1.26 0.90 0.60
0.00 0.00 0.00 0.00 0.00 0.00 0.00 0.00 0.00 0.00 0.00 0.00 0.00 0.00 0.00 0.00 0.00 0.00 0.00 0.00 0.00 0.00 0.01 0.04 0.05 0.06 0.06 0.06 0.04 0.03 0.05 0.07 0.06 0.05 0.11 0.16 0.31 0.50 0.67 0.74 0.81 1.04 1.06
0.00 0.00 0.00 0.00 0.00 0.00 0.00 0.00 0.00 0.00 0.00 0.00 0.00 0.00 0.00 0.00 0.00 0.01 0.01 0.00 0.00 0.00 0.00 0.00 0.01 0.03 0.04 0.07 0.06 0.04 0.03 0.02 0.06 0.09 0.10 0.14 0.16 0.29 0.46 0.71 0.84 0.69 0.70
0.00 0.00 0.00 0.00 0.00 0.00 0.00 0.00 0.01 0.01 0.03 0.06 0.09 0.13 0.20 0.25 0.27 0.26 0.18 0.06 0.02 0.01 0.00 0.00 0.00 0.00 0.01 0.08 0.13 0.08 0.02 0.01 0.01 0.04 0.11 0.15 0.15 0.20 0.37 0.56 0.71 0.94 0.93
0.00 0.00 0.00 0.00 0.00 0.00 0.01 0.07 0.11 0.18 0.31 0.42 0.46 0.46 0.43 0.38 0.32 0.26 0.21 0.16 0.10 0.03 0.00 0.00 0.00 0.00 0.00 0.01 0.08 0.14 0.09 0.05 0.05 0.05 0.07 0.12 0.19 0.21 0.21 0.35 0.60 0.70 0.74
0.00 0.00 0.00 0.01 0.04 0.10 0.15 0.19 0.20 0.25 0.28 0.23 0.19 0.16 0.15 0.13 0.11 0.09 0.06 0.05 0.05 0.01 0.00 0.00 0.00 0.00 0.00 0.02 0.04 0.15 0.24 0.19 0.14 0.12 0.12 0.12 0.12 0.20 0.36 0.36 0.38 0.58 0.81
0.00 0.01 0.04 0.12 0.18 0.17 0.12 0.10 0.08 0.06 0.03 0.03 0.02 0.02 0.02 0.01 0.01 0.01 0.01 0.00 0.00 0.00 0.00 0.00 0.00 0.00 0.00 0.03 0.07 0.15 0.31 0.41 0.25 0.19 0.20 0.20 0.21 0.20 0.19 0.37 0.62 0.64 0.66
0.01 0.05 0.09 0.08 0.06 0.06 0.05 0.04 0.02 0.01 0.01 0.00 0.00 0.00 0.00 0.00 0.00 0.00 0.01 0.01 0.01 0.01 0.01 0.00 0.00 0.00 0.00 0.01 0.03 0.10 0.22 0.41 0.52 0.36 0.23 0.25 0.27 0.28 0.31 0.26 0.32 0.66 0.93
0.00 0.00 0.02 0.06 0.08 0.04 0.02 0.01 0.00 0.00 0.00 0.00 0.00 0.00 0.00 0.00 0.00 0.00 0.01 0.01 0.01 0.01 0.02 0.00 0.00 0.00 0.00 0.00 0.00 0.02 0.10 0.24 0.42 0.53 0.49 0.31 0.24 0.28 0.33 0.43 0.42 0.38 0.49
0.01 0.03 0.07 0.04 0.01 0.00 0.00 0.00 0.00 0.00 0.00 0.00 0.00 0.00 0.00 0.00 0.00 0.00 0.00 0.01 0.01 0.01 0.01 0.01 0.00 0.00 0.00 0.00 0.00 0.01 0.03 0.07 0.16 0.30 0.43 0.55 0.44 0.27 0.25 0.30 0.39 0.48 0.43
0.03 0.03 0.02 0.00 0.00 0.00 0.00 0.00 0.00 0.00 0.00 0.00 0.00 0.00 0.00 0.00 0.00 0.00 0.00 0.00 0.01 0.02 0.02 0.02 0.00 0.00 0.00 0.00 0.01 0.02 0.03 0.05 0.05 0.13 0.30 0.49 0.55 0.48 0.31 0.23 0.27 0.30 0.38
0.03 0.02 0.01 0.00 0.00 0.00 0.00 0.00 0.00 0.00 0.00 0.00 0.00 0.00 0.00 0.00 0.00 0.00 0.00 0.00 0.01 0.02 0.02 0.04 0.03 0.02 0.01 0.01 0.02 0.03 0.03 0.04 0.06 0.08 0.18 0.36 0.52 0.59 0.60 0.37 0.21 0.23 0.29
0.01 0.00 0.00 0.00 0.00 0.00 0.00 0.00 0.00 0.00 0.00 0.00 0.01 0.00 0.00 0.00 0.00 0.00 0.00 0.00 0.00 0.03 0.05 0.06 0.06 0.04 0.02 0.01 0.02 0.05 0.06 0.05 0.06 0.08 0.10 0.23 0.40 0.51 0.65 0.67 0.48 0.34 0.27
0.00 0.00 0.00 0.00 0.00 0.00 0.00 0.00 0.00 0.00 0.01 0.01 0.01 0.01 0.01 0.00 0.00 0.01 0.01 0.01 0.01 0.01 0.02 0.04 0.07 0.05 0.03 0.02 0.04 0.09 0.08 0.07 0.05 0.03 0.08 0.17 0.29 0.41 0.48 0.67 0.72 0.51 0.44
0.00 0.00 0.00 0.00 0.00 0.00 0.00 0.00 0.00 0.01 0.01 0.01 0.01 0.01 0.01 0.01 0.01 0.01 0.03 0.07 0.05 0.03 0.01 0.01 0.02 0.02 0.01 0.01 0.03 0.06 0.09 0.09 0.07 0.02 0.06 0.15 0.22 0.33 0.36 0.44 0.66 0.86 0.73
0.00 0.00 0.00 0.00 0.00 0.00 0.00 0.00 0.00 0.04 0.05 0.02 0.01 0.01 0.02 0.04 0.02 0.02 0.15 0.28 0.13 0.05 0.03 0.03 0.03 0.01 0.01 0.01 0.02 0.15 0.21 0.22 0.16 0.05 0.05 0.10 0.12 0.22 0.35 0.49 0.63 0.69 0.88
0.00 0.00 0.00 0.00 0.00 0.00 0.00 0.00 0.02 0.13 0.18 0.08 0.04 0.03 0.02 0.02 0.03 0.05 0.26 0.32 0.27 0.06 0.02 0.05 0.05 0.03 0.02 0.03 0.03 0.19 0.28 0.25 0.18 0.14 0.04 0.08 0.09 0.12 0.28 0.44 0.48 0.68 0.80

GFSMA_prec_precacc24_027.txt.gz
Total_Precipitation_Accumulation
0.00 0.00 0.00 0.00 0.00 0.00 0.00 0.00 0.00 0.00 0.01 0.03 0.03 0.05 0.06 0.05 0.03 0.01 0.00 0.00 0.00 0.00 0.00 0.00 0.02 0.12 0.24 0.27 0.25 0.20 0.19 0.18 0.22 0.27 0.26 0.17 0.13 0.16 0.16 0.08 0.04 0.02 0.01
0.00 0.00 0.00 0.00 0.00 0.00 0.00 0.01 0.01 0.01 0.01 0.01 0.00 0.03 0.01 0.02 0.02 0.03 0.02 0.01 0.01 0.00 0.00 0.00 0.00 0.03 0.14 0.23 0.31 0.30 0.27 0.22 0.19 0.23 0.23 0.17 0.16 0.18 0.17 0.14 0.08 0.05 0.02
0.00 0.00 0.00 0.00 0.00 0.00 0.00 0.00 0.00 0.00 0.01 0.01 0.02 0.06 0.07 0.05 0.04 0.04 0.04 0.05 0.06 0.08 0.07 0.01 0.00 0.01 0.04 0.10 0.23 0.24 0.23 0.26 0.22 0.20 0.22 0.19 0.15 0.17 0.18 0.15 0.12 0.10 0.08
0.00 0.00 0.00 0.00 0.00 0.00 0.00 0.00 0.00 0.00 0.00 0.00 0.00 0.00 0.01 0.03 0.03 0.02 0.02 0.02 0.07 0.11 0.16 0.15 0.08 0.04 0.03 0.02 0.09 0.20 0.26 0.24 0.23 0.25 0.23 0.18 0.15 0.16 0.20 0.18 0.18 0.18 0.14
0.00 0.00 0.00 0.00 0.00 0.00 0.00 0.00 0.00 0.00 0.00 0.00 0.00 0.00 0.00 0.00 0.01 0.01 0.01 0.01 0.01 0.03 0.07 0.10 0.13 0.13 0.10 0.08 0.06 0.11 0.22 0.29 0.42 0.37 0.34 0.36 0.36 0.24 0.18 0.17 0.19 0.19 0.18
0.00 0.00 0.00 0.00 0.00 0.00 0.00 0.00 0.00 0.00 0.00 0.00 0.00 0.00 0.00 0.00 0.00 0.00 0.01 0.01 0.02 0.02 0.02 0.02 0.04 0.07 0.11 0.18 0.22 0.19 0.21 0.22 0.23 0.50 0.97 1.02 0.66 0.52 0.51 0.42 0.29 0.24 0.25
0.00 0.00 0.00 0.00 0.00 0.00 0.00 0.00 0.00 0.00 0.00 0.00 0.00 0.00 0.00 0.00 0.00 0.00 0.01 0.04 0.06 0.07 0.05 0.04 0.03 0.03 0.04 0.09 0.16 0.26 0.31 0.34 0.33 0.30 0.31 0.79 1.47 1.22 0.78 0.62 0.62 0.48 0.39
0.00 0.00 0.00 0.00 0.00 0.00 0.00 0.00 0.00 0.00 0.00 0.00 0.01 0.01 0.00 0.00 0.00 0.00 0.00 0.02 0.04 0.08 0.10 0.07 0.05 0.04 0.03 0.02 0.02 0.06 0.17 0.43 0.50 0.42 0.41 0.59 0.72 1.00 1.13 0.88 0.75 0.75 0.73
0.00 0.00 0.00 0.00 0.00 0.00 0.00 0.00 0.00 0.00 0.00 0.00 0.00 0.01 0.01 0.00 0.00 0.00 0.00 0.00 0.00 0.01 0.04 0.06 0.05 0.04 0.04 0.04 0.04 0.04 0.05 0.06 0.13 0.26 0.32 0.45 0.84 1.36 1.23 0.99 0.66 0.52 0.53
0.00 0.00 0.00 0.00 0.00 0.00 0.00 0.00 0.00 0.00 0.00 0.00 0.00 0.00 0.01 0.02 0.02 0.01 0.00 0.00 0.00 0.00 0.00 0.02 0.04 0.03 0.03 0.05 0.09 0.10 0.05 0.03 0.05 0.09 0.17 0.29 0.45 0.63 1.06 1.34 1.25 0.90 0.60
0.00 0.00 0.00 0.00 0.00 0.00 0.00 0.00 0.00 0.00 0.00 0.00 0.00 0.00 0.01 0.01 0.01 0.02 0.01 0.01 0.02 0.00 0.00 0.00 0.01 0.04 0.05 0.04 0.03 0.03 0.02 0.03 0.04 0.05 0.10 0.15 0.31 0.50 0.67 0.74 0.81 1.03 1.06
0.00 0.00 0.00 0.00 0.00 0.00 0.00 0.00 0.00 0.00 0.00 0.00 0.00 0.00 0.00 0.00 0.00 0.01 0.01 0.00 0.03 0.05 0.02 0.01 0.01 0.00 0.01 0.02 0.03 0.04 0.03 0.01 0.04 0.08 0.10 0.13 0.16 0.29 0.46 0.71 0.84 0.69 0.70
0.00 0.00 0.00 0.00 0.00 0.00 0.00 0.00 0.01 0.02 0.03 0.06 0.09 0.13 0.20 0.25 0.27 0.27 0.21 0.11 0.08 0.09 0.08 0.01 0.01 0.00 0.00 0.03 0.04 0.03 0.00 0.00 0.01 0.03 0.10 0.14 0.14 0.19 0.37 0.56 0.71 0.94 0.93
0.00 0.00 0.00 0.00 0.00 0.01 0.02 0.07 0.12 0.18 0.31 0.42 0.46 0.46 0.43 0.38 0.33 0.28 0.23 0.20 0.14 0.06 0.04 0.06 0.02 0.01 0.00 0.00 0.00 0.01 0.00 0.01 0.02 0.03 0.05 0.10 0.17 0.20 0.20 0.35 0.60 0.70 0.74
0.00 0.00 0.00 0.01 0.04 0.10 0.15 0.19 0.21 0.27 0.30 0.25 0.21 0.18 0.16 0.15 0.13 0.11 0.08 0.08 0.10 0.04 0.00 0.00 0.00 0.01 0.01 0.00 0.00 0.00 0.00 0.02 0.04 0.07 0.09 0.10 0.10 0.17 0.32 0.33 0.37 0.58 0.81
0.00 0.01 0.04 0.12 0.18 0.17 0.12 0.11 0.10 0.09 0.09 0.08 0.06 0.05 0.04 0.03 0.02 0.02 0.02 0.01 0.02 0.03 0.01 0.00 0.00 0.00 0.00 0.01 0.01 0.01 0.00 0.01 0.03 0.08 0.18 0.18 0.18 0.18 0.15 0.31 0.57 0.60 0.65
0.01 0.05 0.09 0.08 0.06 0.07 0.06 0.04 0.03 0.02 0.01 0.01 0.01 0.01 0.00 0.00 0.00 0.00 0.00 0.00 0.00 0.00 0.01 0.00 0.00 0.00 0.00 0.01 0.01 0.01 0.00 0.01 0.02 0.05 0.14 0.24 0.26 0.27 0.29 0.23 0.27 0.62 0.87
0.00 0.01 0.02 0.07 0.09 0.05 0.02 0.02 0.02 0.00 0.00 0.00 0.00 0.00 0.00 0.00 0.00 0.00 0.00 0.00 0.00 0.00 0.01 0.00 0.00 0.00 0.00 0.00 0.00 0.00 0.00 0.00 0.00 0.01 0.05 0.16 0.23 0.27 0.32 0.41 0.40 0.34 0.47
0.03 0.06 0.10 0.06 0.02 0.00 0.00 0.00 0.00 0.00 0.00 0.00 0.00 0.00 0.00 0.00 0.00 0.00 0.00 0.00 0.00 0.00 0.01 0.01 0.00 0.00 0.00 0.00 0.00 0.00 0.01 0.01 0.00 0.00 0.02 0.08 0.20 0.25 0.25 0.29 0.37 0.47 0.42
0.05 0.06 0.04 0.01 0.00 0.00 0.00 0.00 0.00 0.00 0.00 0.00 0.00 0.00 0.00 0.00 0.00 0.00 0.00 0.00 0.00 0.01 0.01 0.01 0.00 0.00 0.00 0.00 0.00 0.01 0.01 0.00 0.00 0.00 0.01 0.04 0.12 0.22 0.25 0.22 0.26 0.29 0.37
0.04 0.02 0.01 0.00 0.00 0.00 0.00 0.00 0.00 0.00 0.00 0.00 0.00 0.00 0.00 0.00 0.00 0.00 0.00 0.00 0.00 0.01 0.01 0.03 0.02 0.01 0.01 0.01 0.01 0.01 0.02 0.01 0.00 0.00 0.01 0.02 0.06 0.16 0.29 0.27 0.18 0.21 0.27
0.01 0.00 0.00 0.00 0.00 0.00 0.00 0.00 0.00 0.00 0.00 0.00 0.00 0.00 0.00 0.00 0.00 0.00 0.00 0.00 0.00 0.01 0.03 0.05 0.04 0.03 0.02 0.01 0.02 0.03 0.06 0.05 0.03 0.01 0.02 0.03 0.03 0.08 0.18 0.31 0.30 0.25 0.20
0.00 0.00 0.00 0.00 0.00 0.00 0.00 0.00 0.00 0.00 0.00 0.00 0.00 0.00 0.00 0.00 0.00 0.00 0.00 0.00 0.01 0.01 0.02 0.03 0.06 0.04 0.02 0.01 0.03 0.06 0.07 0.08 0.06 0.02 0.03 0.05 0.05 0.07 0.12 0.22 0.34 0.29 0.27
0.00 0.00 0.00 0.00 0.00 0.00 0.00 0.00 0.00 0.00 0.00 0.00 0.00 0.00 0.00 0.00 0.00 0.01 0.03 0.06 0.04 0.02 0.02 0.01 0.04 0.03 0.02 0.02 0.04 0.04 0.06 0.11 0.08 0.02 0.03 0.08 0.04 0.07 0.06 0.14 0.27 0.42 0.37
0.00 0.00 0.00 0.00 0.00 0.00 0.00 0.00 0.00 0.02 0.03 0.02 0.01 0.01 0.02 0.04 0.02 0.02 0.14 0.25 0.12 0.04 0.02 0.01 0.02 0.02 0.01 0.01 0.02 0.13 0.21 0.26 0.19 0.06 0.04 0.08 0.06 0.07 0.09 0.11 0.20 0.27 0.45
0.00 0.00 0.00 0.00 0.00 0.00 0.00 0.00 0.01 0.08 0.13 0.07 0.04 0.03 0.02 0.02 0.03 0.06 0.24 0.29 0.26 0.06 0.01 0.02 0.02 0.02 0.02 0.04 0.04 0.19 0.24 0.26 0.20 0.15 0.05 0.09 0.07 0.06 0.12 0.15 0.17 0.27 0.39

GFSMA_prec_precacc24_030.txt.gz
Total_Precipitation_Accumulation
0.00 0.00 0.00 0.00 0.00 0.00 0.00 0.00 0.00 0.00 0.00 0.00 0.00 0.00 0.01 0.00 0.01 0.01 0.00 0.00 0.00 0.00 0.00 0.00 0.02 0.12 0.24 0.27 0.25 0.20 0.19 0.18 0.22 0.27 0.26 0.17 0.13 0.17 0.19 0.14 0.07 0.03 0.02
0.00 0.00 0.00 0.00 0.00 0.00 0.00 0.00 0.00 0.00 0.00 0.00 0.00 0.00 0.00 0.00 0.00 0.01 0.02 0.01 0.01 0.00 0.00 0.00 0.00 0.03 0.13 0.21 0.30 0.30 0.27 0.22 0.19 0.23 0.24 0.18 0.16 0.18 0.17 0.14 0.08 0.05 0.02
0.00 0.00 0.00 0.00 0.00 0.00 0.00 0.00 0.00 0.00 0.00 0.00 0.00 0.00 0.01 0.00 0.00 0.00 0.02 0.04 0.06 0.08 0.07 0.01 0.00 0.01 0.03 0.09 0.20 0.24 0.23 0.26 0.22 0.20 0.22 0.19 0.16 0.19 0.26 0.17 0.12 0.09 0.08
0.00 0.00 0.00 0.00 0.00 0.00 0.00 0.00 0.00 0.00 0.00 0.00 0.00 0.00 0.00 0.00 0.00 0.01 0.01 0.02 0.06 0.11 0.16 0.15 0.08 0.04 0.03 0.02 0.06 0.16 0.26 0.24 0.23 0.25 0.23 0.18 0.15 0.16 0.22 0.23 0.22 0.22 0.17
0.00 0.00 0.00 0.00 0.00 0.00 0.00 0.00 0.00 0.00 0.00 0.00 0.00 0.00 0.00 0.00 0.00 0.00 0.00 0.00 0.01 0.03 0.07 0.10 0.13 0.13 0.10 0.08 0.06 0.06 0.16 0.29 0.42 0.37 0.34 0.36 0.35 0.24 0.18 0.17 0.21 0.35 0.36
0.00 0.00 0.00 0.00 0.00 0.00 0.00 0.00 0.00 0.00 0.00 0.00 0.00 0.00 0.00 0.00 0.00 0.00 0.00 0.00 0.01 0.02 0.02 0.02 0.04 0.07 0.11 0.18 0.22 0.18 0.14 0.16 0.22 0.50 0.97 1.02 0.66 0.52 0.51 0.42 0.29 0.28 0.40
0.00 0.00 0.00 0.00 0.00 0.00 0.00 0.00 0.00 0.00 0.00 0.00 0.01 0.00 0.00 0.00 0.00 0.00 0.00 0.00 0.00 0.02 0.04 0.04 0.03 0.03 0.04 0.09 0.16 0.26 0.30 0.26 0.23 0.28 0.31 0.79 1.47 1.22 0.78 0.62 0.62 0.48 0.40
0.00 0.00 0.00 0.00 0.00 0.00 0.00 0.00 0.00 0.00 0.00 0.00 0.01 0.01 0.00 0.00 0.00 0.00 0.00 0.00 0.00 0.00 0.01 0.04 0.05 0.04 0.02 0.02 0.02 0.06 0.17 0.42 0.42 0.31 0.40 0.59 0.72 1.00 1.13 0.87 0.75 0.74 0.73
0.00 0.00 0.00 0.00 0.00 0.00 0.00 0.00 0.00 0.00 0.00 0.00 0.00 0.02 0.02 0.01 0.01 0.00 0.00 0.02 0.01 0.01 0.00 0.00 0.02 0.04 0.04 0.04 0.04 0.04 0.05 0.06 0.10 0.18 0.21 0.42 0.84 1.36 1.23 0.99 0.65 0.51 0.53
0.00 0.00 0.00 0.00 0.00 0.00 0.00 0.00 0.00 0.00 0.00 0.00 0.00 0.00 0.02 0.04 0.04 0.02 0.00 0.00 0.03 0.05 0.04 0.04 0.03 0.03 0.02 0.04 0.09 0.10 0.05 0.03 0.03 0.04 0.08 0.19 0.42 0.63 1.06 1.34 1.25 0.90 0.59
0.00 0.00 0.00 0.00 0.00 0.00 0.00 0.00 0.00 0.00 0.00 0.00 0.00 0.00 0.01 0.01 0.01 0.03 0.01 0.01 0.03 0.05 0.04 0.05 0.05 0.05 0.03 0.02 0.02 0.03 0.02 0.02 0.01 0.01 0.05 0.09 0.21 0.48 0.67 0.74 0.81 1.03 1.05
0.00 0.00 0.00 0.00 0.00 0.00 0.00 0.00 0.00 0.00 0.00 0.00 0.00 0.00 0.00 0.00 0.00 0.01 0.01 0.00 0.03 0.07 0.04 0.06 0.07 0.06 0.06 0.05 0.01 0.03 0.02 0.01 0.01 0.02 0.02 0.08 0.13 0.24 0.45 0.71 0.84 0.69 0.69
0.00 0.00 0.00 0.00 0.00 0.00 0.00 0.00 0.01 0.02 0.03 0.06 0.09 0.13 0.21 0.26 0.27 0.27 0.22 0.12 0.09 0.10 0.11 0.04 0.05 0.04 0.04 0.06 0.02 0.00 0.00 0.00 0.00 0.01 0.03 0.05 0.08 0.17 0.35 0.56 0.71 0.94 0.93
0.00 0.00 0.00 0.00 0.00 0.01 0.02 0.07 0.12 0.19 0.31 0.43 0.46 0.47 0.44 0.39 0.33 0.29 0.25 0.23 0.17 0.07 0.05 0.08 0.07 0.11 0.09 0.08 0.04 0.00 0.00 0.00 0.00 0.00 0.02 0.04 0.05 0.12 0.17 0.34 0.60 0.70 0.74
0.00 0.00 0.00 0.01 0.04 0.10 0.15 0.19 0.21 0.28 0.32 0.27 0.24 0.21 0.19 0.17 0.14 0.12 0.10 0.10 0.14 0.07 0.01 0.00 0.02 0.05 0.09 0.08 0.05 0.02 0.00 0.00 0.00 0.00 0.00 0.03 0.04 0.08 0.27 0.31 0.36 0.58 0.81
0.00 0.01 0.04 0.12 0.18 0.17 0.12 0.11 0.10 0.09 0.10 0.10 0.08 0.07 0.06 0.05 0.05 0.05 0.04 0.03 0.03 0.04 0.02 0.00 0.00 0.00 0.00 0.00 0.01 0.00 0.00 0.00 0.00 0.00 0.00 0.00 0.03 0.08 0.07 0.25 0.52 0.57 0.65
0.01 0.05 0.09 0.08 0.06 0.07 0.06 0.05 0.04 0.03 0.03 0.02 0.01 0.01 0.01 0.01 0.00 0.00 0.01 0.01 0.02 0.02 0.01 0.00 0.00 0.00 0.00 0.00 0.00 0.00 0.00 0.00 0.00 0.00 0.00 0.00 0.00 0.04 0.11 0.11 0.20 0.53 0.78
0.01 0.01 0.03 0.08 0.10 0.06 0.03 0.03 0.02 0.00 0.00 0.00 0.00 0.00 0.00 0.00 0.00 0.00 0.00 0.00 0.00 0.00 0.00 0.00 0.00 0.00 0.00 0.00 0.00 0.00 0.00 0.00 0.00 0.00 0.00 0.00 0.00 0.01 0.05 0.12 0.22 0.26 0.39
0.04 0.08 0.11 0.07 0.03 0.01 0.00 0.00 0.00 0.00 0.00 0.00 0.00 0.00 0.00 0.00 0.00 0.00 0.00 0.00 0.00 0.00 0.00 0.00 0.00 0.00 0.00 0.00 0.00 0.00 0.00 0.00 0.00 0.00 0.00 0.00 0.00 0.00 0.02 0.06 0.15 0.33 0.34
0.07 0.07 0.05 0.02 0.01 0.00 0.00 0.00 0.00 0.00 0.00 0.00 0.00 0.00 0.00 0.00 0.00 0.00 0.00 0.00 0.00 0.00 0.00 0.00 0.00 0.00 0.00 0.00 0.00 0.00 0.00 0.00 0.00 0.00 0.00 0.00 0.00 0.00 0.00 0.01 0.06 0.14 0.29
0.04 0.02 0.01 0.00 0.00 0.00 0.00 0.00 0.00 0.00 0.00 0.00 0.00 0.00 0.00 0.00 0.00 0.00 0.00 0.00 0.00 0.00 0.01 0.02 0.02 0.01 0.01 0.01 0.01 0.01 0.01 0.00 0.00 0.00 0.00 0.00 0.00 0.00 0.00 0.00 0.01 0.06 0.13
0.01 0.00 0.00 0.00 0.00 0.00 0.00 0.00 0.00 0.00 0.00 0.00 0.00 0.00 0.00 0.00 0.00 0.00 0.00 0.00 0.00 0.01 0.03 0.04 0.04 0.02 0.02 0.01 0.02 0.03 0.03 0.04 0.03 0.01 0.01 0.01 0.01 0.01 0.00 0.00 0.00 0.02 0.05
0.00 0.00 0.00 0.00 0.00 0.00 0.00 0.00 0.00 0.00 0.00 0.00 0.00 0.00 0.00 0.00 0.00 0.00 0.00 0.00 0.00 0.01 0.02 0.03 0.06 0.04 0.02 0.01 0.01 0.03 0.04 0.06 0.05 0.02 0.04 0.05 0.02 0.03 0.01 0.00 0.00 0.01 0.02
0.00 0.00 0.00 0.00 0.00 0.00 0.00 0.00 0.00 0.00 0.00 0.00 0.00 0.00 0.00 0.00 0.00 0.01 0.03 0.05 0.03 0.02 0.02 0.02 0.06 0.04 0.02 0.02 0.04 0.05 0.07 0.09 0.07 0.02 0.03 0.08 0.02 0.03 0.02 0.02 0.02 0.01 0.02
0.00 0.00 0.00 0.00 0.00 0.00 0.00 0.00 0.00 0.01 0.02 0.01 0.01 0.01 0.03 0.04 0.02 0.03 0.13 0.20 0.10 0.04 0.01 0.02 0.03 0.02 0.02 0.02 0.02 0.13 0.21 0.22 0.15 0.04 0.04 0.09 0.06 0.03 0.02 0.02 0.02 0.02 0.01
0.00 0.00 0.00 0.00 0.00 0.00 0.01 0.00 0.01 0.04 0.08 0.04 0.03 0.02 0.02 0.02 0.06 0.08 0.24 0.28 0.24 0.05 0.02 0.03 0.02 0.02 0.02 0.04 0.03 0.19 0.24 0.22 0.14 0.12 0.02 0.09 0.08 0.05 0.07 0.02 0.03 0.04 0.03

GFSMA_prec_precacc24_036.txt.gz
Total_Precipitation_Accumulation
0.00 0.00 0.00 0.00 0.00 0.00 0.00 0.00 0.00 0.00 0.00 0.00 0.00 0.00 0.00 0.00 0.00 0.00 0.00 0.00 0.00 0.00 0.00 0.00 0.00 0.01 0.06 0.13 0.15 0.14 0.14 0.15 0.23 0.33 0.32 0.25 0.20 0.20 0.22 0.18 0.08 0.02 0.01
0.00 0.00 0.00 0.00 0.00 0.00 0.00 0.00 0.00 0.00 0.00 0.00 0.00 0.00 0.00 0.00 0.00 0.00 0.00 0.00 0.00 0.00 0.00 0.00 0.00 0.00 0.00 0.03 0.11 0.17 0.19 0.17 0.16 0.21 0.29 0.26 0.23 0.24 0.21 0.17 0.14 0.08 0.02
0.00 0.00 0.00 0.00 0.00 0.00 0.00 0.00 0.00 0.00 0.00 0.00 0.00 0.00 0.00 0.00 0.00 0.00 0.00 0.00 0.00 0.00 0.00 0.00 0.00 0.01 0.01 0.01 0.03 0.06 0.12 0.17 0.16 0.15 0.18 0.20 0.20 0.23 0.37 0.26 0.18 0.17 0.09
0.00 0.00 0.00 0.00 0.00 0.00 0.00 0.00 0.00 0.00 0.00 0.00 0.00 0.00 0.00 0.00 0.00 0.00 0.00 0.00 0.00 0.00 0.00 0.00 0.00 0.01 0.02 0.01 0.01 0.01 0.04 0.12 0.19 0.22 0.20 0.17 0.18 0.18 0.26 0.39 0.38 0.38 0.29
0.00 0.00 0.00 0.00 0.00 0.00 0.00 0.00 0.00 0.00 0.00 0.00 0.00 0.00 0.00 0.00 0.00 0.00 0.00 0.00 0.00 0.00 0.00 0.00 0.00 0.00 0.02 0.03 0.03 0.03 0.05 0.06 0.16 0.28 0.33 0.36 0.36 0.24 0.21 0.18 0.27 0.47 0.64
0.00 0.00 0.00 0.00 0.00 0.00 0.00 0.00 0.00 0.00 0.00 0.00 0.00 0.00 0.00 0.00 0.00 0.00 0.00 0.00 0.00 0.00 0.00 0.00 0.00 0.00 0.00 0.03 0.10 0.11 0.10 0.08 0.07 0.19 0.71 0.97 0.66 0.52 0.51 0.42 0.29 0.29 0.49
0.00 0.00 0.00 0.00 0.00 0.00 0.00 0.00 0.00 0.00 0.00 0.00 0.01 0.00 0.00 0.00 0.00 0.00 0.00 0.00 0.00 0.00 0.00 0.00 0.00 0.00 0.00 0.00 0.03 0.12 0.21 0.21 0.14 0.09 0.12 0.63 1.44 1.22 0.78 0.62 0.62 0.47 0.40
0.00 0.00 0.00 0.00 0.00 0.00 0.00 0.00 0.00 0.00 0.00 0.00 0.01 0.01 0.00 0.00 0.00 0.00 0.00 0.00 0.00 0.01 0.01 0.01 0.00 0.00 0.00 0.00 0.00 0.02 0.13 0.38 0.40 0.23 0.12 0.12 0.31 0.91 1.12 0.87 0.75 0.74 0.72
0.00 0.00 0.00 0.00 0.00 0.00 0.00 0.00 0.00 0.00 0.00 0.00 0.00 0.02 0.02 0.01 0.01 0.00 0.00 0.02 0.02 0.02 0.02 0.02 0.02 0.00 0.00 0.00 0.00 0.00 0.00 0.03 0.09 0.15 0.13 0.12 0.19 0.55 0.86 0.95 0.65 0.51 0.53
0.00 0.00 0.00 0.00 0.00 0.00 0.00 0.00 0.00 0.00 0.00 0.00 0.00 0.00 0.02 0.05 0.04 0.03 0.00 0.00 0.03 0.05 0.07 0.09 0.10 0.10 0.06 0.04 0.01 0.00 0.00 0.00 0.00 0.01 0.04 0.05 0.10 0.18 0.26 0.69 1.05 0.88 0.59
0.00 0.00 0.00 0.00 0.00 0.00 0.00 0.00 0.00 0.00 0.00 0.00 0.00 0.00 0.01 0.01 0.01 0.03 0.01 0.01 0.03 0.05 0.04 0.07 0.10 0.15 0.20 0.22 0.17 0.11 0.07 0.03 0.01 0.00 0.01 0.01 0.04 0.09 0.15 0.18 0.41 0.90 1.04
0.00 0.00 0.00 0.00 0.00 0.00 0.00 0.00 0.00 0.00 0.00 0.00 0.00 0.00 0.00 0.00 0.00 0.01 0.02 0.00 0.03 0.07 0.04 0.06 0.07 0.09 0.14 0.21 0.27 0.21 0.11 0.08 0.07 0.03 0.01 0.00 0.01 0.03 0.07 0.12 0.25 0.34 0.57
0.00 0.00 0.00 0.00 0.00 0.00 0.00 0.00 0.01 0.02 0.03 0.06 0.09 0.13 0.21 0.26 0.27 0.28 0.23 0.13 0.09 0.10 0.11 0.04 0.05 0.05 0.05 0.12 0.24 0.35 0.32 0.22 0.10 0.08 0.05 0.02 0.01 0.01 0.03 0.08 0.13 0.39 0.62
0.00 0.00 0.00 0.00 0.00 0.00 0.01 0.04 0.09 0.17 0.31 0.42 0.46 0.47 0.45 0.40 0.34 0.31 0.30 0.29 0.22 0.07 0.05 0.08 0.07 0.11 0.11 0.12 0.18 0.21 0.19 0.22 0.28 0.26 0.11 0.03 0.01 0.01 0.00 0.01 0.04 0.06 0.24
0.00 0.00 0.00 0.00 0.00 0.02 0.09 0.16 0.20 0.27 0.32 0.27 0.24 0.22 0.20 0.20 0.20 0.16 0.15 0.19 0.26 0.12 0.01 0.00 0.02 0.05 0.11 0.13 0.17 0.19 0.23 0.25 0.22 0.22 0.21 0.12 0.04 0.02 0.01 0.01 0.01 0.02 0.08
0.00 0.00 0.00 0.02 0.08 0.12 0.12 0.11 0.10 0.09 0.10 0.10 0.09 0.08 0.07 0.06 0.06 0.08 0.09 0.07 0.07 0.06 0.03 0.00 0.00 0.00 0.00 0.01 0.02 0.04 0.09 0.11 0.09 0.09 0.12 0.14 0.09 0.04 0.03 0.02 0.01 0.01 0.02
0.00 0.00 0.03 0.06 0.06 0.08 0.07 0.06 0.05 0.04 0.04 0.03 0.02 0.02 0.01 0.01 0.01 0.01 0.01 0.02 0.04 0.04 0.02 0.00 0.00 0.00 0.00 0.00 0.00 0.00 0.01 0.02 0.02 0.02 0.03 0.04 0.06 0.03 0.01 0.00 0.00 0.00 0.00
0.01 0.02 0.04 0.09 0.11 0.07 0.04 0.03 0.02 0.00 0.00 0.00 0.00 0.00 0.00 0.00 0.00 0.00 0.00 0.00 0.00 0.00 0.00 0.00 0.00 0.00 0.00 0.00 0.00 0.00 0.00 0.00 0.00 0.00 0.00 0.00 0.01 0.01 0.00 0.00 0.00 0.00 0.00
0.04 0.08 0.12 0.08 0.03 0.01 0.00 0.00 0.00 0.00 0.00 0.00 0.00 0.00 0.00 0.00 0.00 0.00 0.00 0.00 0.00 0.00 0.00 0.00 0.00 0.00 0.00 0.00 0.00 0.00 0.00 0.00 0.00 0.00 0.00 0.00 0.00 0.00 0.00 0.00 0.00 0.00 0.00
0.07 0.07 0.05 0.02 0.01 0.00 0.00 0.00 0.00 0.00 0.00 0.00 0.00 0.00 0.00 0.00 0.00 0.00 0.00 0.00 0.00 0.00 0.00 0.00 0.00 0.00 0.00 0.00 0.00 0.00 0.00 0.00 0.00 0.00 0.00 0.00 0.00 0.00 0.00 0.00 0.00 0.00 0.00
0.04 0.02 0.01 0.00 0.00 0.00 0.00 0.00 0.00 0.00 0.00 0.00 0.00 0.00 0.00 0.00 0.00 0.00 0.01 0.00 0.00 0.00 0.01 0.01 0.01 0.00 0.00 0.00 0.00 0.00 0.00 0.00 0.00 0.00 0.00 0.00 0.00 0.00 0.00 0.00 0.00 0.00 0.00
0.02 0.00 0.00 0.00 0.00 0.00 0.00 0.00 0.00 0.00 0.00 0.00 0.00 0.00 0.00 0.00 0.00 0.00 0.00 0.00 0.00 0.02 0.03 0.04 0.04 0.02 0.01 0.00 0.01 0.01 0.02 0.02 0.02 0.01 0.01 0.01 0.01 0.01 0.00 0.00 0.00 0.00 0.00
0.01 0.00 0.00 0.00 0.00 0.00 0.00 0.00 0.00 0.00 0.00 0.00 0.00 0.00 0.00 0.00 0.00 0.00 0.00 0.00 0.00 0.01 0.02 0.04 0.07 0.03 0.01 0.01 0.01 0.03 0.03 0.03 0.03 0.01 0.02 0.04 0.02 0.03 0.01 0.00 0.00 0.00 0.00
0.01 0.00 0.00 0.00 0.00 0.00 0.00 0.00 0.00 0.00 0.00 0.00 0.00 0.00 0.00 0.00 0.00 0.01 0.03 0.05 0.03 0.02 0.02 0.03 0.07 0.05 0.03 0.03 0.05 0.06 0.09 0.12 0.09 0.03 0.02 0.07 0.02 0.03 0.02 0.01 0.00 0.00 0.00
0.00 0.00 0.00 0.00 0.00 0.00 0.00 0.00 0.00 0.00 0.01 0.00 0.00 0.01 0.02 0.02 0.02 0.04 0.14 0.15 0.07 0.03 0.01 0.02 0.04 0.04 0.04 0.04 0.05 0.17 0.25 0.22 0.14 0.03 0.02 0.06 0.04 0.03 0.02 0.01 0.01 0.00 0.00
0.00 0.00 0.00 0.00 0.00 0.00 0.01 0.01 0.01 0.02 0.03 0.02 0.01 0.01 0.01 0.02 0.08 0.13 0.24 0.23 0.17 0.03 0.02 0.03 0.02 0.01 0.02 0.03 0.02 0.16 0.20 0.21 0.12 0.11 0.01 0.06 0.05 0.04 0.07 0.02 0.01 0.01 0.01

GFSMA_prec_precacc24_042.txt.gz
Total_Precipitation_Accumulation
0.00 0.00 0.00 0.00 0.00 0.00 0.00 0.00 0.00 0.00 0.00 0.00 0.00 0.00 0.00 0.00 0.00 0.00 0.00 0.00 0.00 0.00 0.00 0.00 0.00 0.00 0.00 0.00 0.00 0.01 0.02 0.03 0.09 0.23 0.27 0.21 0.20 0.25 0.29 0.27 0.19 0.14 0.08
0.00 0.00 0.00 0.00 0.00 0.00 0.00 0.00 0.00 0.00 0.00 0.00 0.00 0.00 0.00 0.00 0.00 0.00 0.00 0.00 0.00 0.00 0.00 0.00 0.00 0.00 0.00 0.00 0.00 0.00 0.02 0.05 0.05 0.10 0.22 0.26 0.24 0.26 0.26 0.24 0.24 0.25 0.20
0.00 0.00 0.00 0.00 0.00 0.00 0.00 0.00 0.00 0.00 0.00 0.00 0.00 0.00 0.00 0.00 0.00 0.00 0.00 0.00 0.00 0.00 0.00 0.00 0.00 0.00 0.00 0.00 0.00 0.00 0.00 0.01 0.01 0.02 0.06 0.14 0.20 0.24 0.40 0.30 0.29 0.32 0.26
0.00 0.00 0.00 0.00 0.00 0.00 0.00 0.00 0.00 0.00 0.00 0.00 0.00 0.00 0.00 0.00 0.00 0.00 0.00 0.00 0.00 0.00 0.00 0.00 0.00 0.00 0.00 0.00 0.00 0.00 0.01 0.02 0.02 0.03 0.03 0.04 0.10 0.13 0.24 0.39 0.43 0.51 0.54
0.00 0.00 0.00 0.00 0.00 0.00 0.00 0.00 0.00 0.00 0.00 0.00 0.00 0.00 0.00 0.00 0.00 0.00 0.00 0.00 0.00 0.00 0.00 0.00 0.00 0.00 0.00 0.00 0.00 0.00 0.00 0.01 0.02 0.03 0.04 0.04 0.03 0.06 0.14 0.16 0.25 0.49 0.84
0.00 0.00 0.00 0.00 0.00 0.00 0.00 0.00 0.00 0.00 0.00 0.00 0.00 0.00 0.00 0.00 0.00 0.00 0.00 0.00 0.00 0.00 0.00 0.00 0.00 0.00 0.00 0.00 0.00 0.00 0.00 0.00 0.00 0.01 0.01 0.01 0.01 0.04 0.13 0.21 0.25 0.26 0.49
0.00 0.00 0.00 0.00 0.00 0.00 0.00 0.00 0.00 0.00 0.00 0.00 0.01 0.00 0.00 0.00 0.00 0.00 0.00 0.00 0.00 0.00 0.00 0.00 0.00 0.00 0.00 0.00 0.00 0.00 0.00 0.00 0.00 0.01 0.02 0.01 0.00 0.00 0.02 0.07 0.31 0.40 0.38
0.00 0.00 0.00 0.00 0.00 0.00 0.00 0.00 0.00 0.00 0.00 0.00 0.01 0.01 0.00 0.00 0.00 0.00 0.00 0.00 0.00 0.01 0.01 0.01 0.00 0.00 0.00 0.00 0.00 0.00 0.00 0.00 0.00 0.02 0.04 0.04 0.03 0.02 0.01 0.01 0.10 0.30 0.44
0.00 0.00 0.00 0.00 0.00 0.00 0.00 0.00 0.00 0.00 0.00 0.00 0.00 0.02 0.02 0.01 0.01 0.00 0.00 0.02 0.02 0.02 0.02 0.02 0.02 0.00 0.00 0.00 0.00 0.00 0.00 0.00 0.01 0.02 0.03 0.04 0.04 0.03 0.03 0.01 0.02 0.10 0.21
0.00 0.00 0.00 0.00 0.00 0.00 0.00 0.00 0.00 0.00 0.00 0.00 0.00 0.00 0.02 0.05 0.04 0.03 0.00 0.00 0.03 0.05 0.07 0.09 0.10 0.10 0.06 0.04 0.01 0.01 0.00 0.00 0.00 0.01 0.03 0.04 0.07 0.07 0.05 0.03 0.01 0.03 0.13
0.00 0.00 0.00 0.00 0.00 0.00 0.00 0.00 0.00 0.00 0.00 0.00 0.00 0.00 0.01 0.01 0.01 0.03 0.01 0.01 0.03 0.05 0.04 0.07 0.10 0.15 0.20 0.22 0.17 0.11 0.07 0.04 0.02 0.01 0.02 0.03 0.04 0.07 0.08 0.08 0.03 0.01 0.03
0.00 0.00 0.00 0.00 0.00 0.00 0.00 0.00 0.00 0.00 0.00 0.00 0.00 0.00 0.00 0.00 0.00 0.01 0.02 0.01 0.03 0.07 0.04 0.06 0.07 0.09 0.14 0.21 0.27 0.21 0.11 0.08 0.08 0.06 0.06 0.07 0.06 0.06 0.05 0.08 0.11 0.05 0.05
0.00 0.00 0.00 0.00 0.00 0.00 0.00 0.00 0.00 0.01 0.01 0.01 0.01 0.03 0.07 0.10 0.14 0.20 0.21 0.14 0.09 0.10 0.11 0.04 0.05 0.05 0.05 0.12 0.24 0.35 0.32 0.23 0.12 0.09 0.10 0.11 0.13 0.18 0.21 0.17 0.16 0.18 0.07
0.00 0.00 0.00 0.00 0.00 0.00 0.00 0.00 0.01 0.01 0.03 0.09 0.15 0.24 0.30 0.33 0.32 0.32 0.34 0.33 0.25 0.07 0.05 0.08 0.07 0.11 0.11 0.12 0.18 0.21 0.19 0.22 0.30 0.29 0.14 0.07 0.11 0.15 0.21 0.18 0.17 0.15 0.12
0.00 0.00 0.00 0.00 0.00 0.00 0.00 0.00 0.02 0.08 0.15 0.17 0.18 0.19 0.19 0.21 0.21 0.17 0.16 0.21 0.31 0.15 0.01 0.00 0.02 0.05 0.11 0.13 0.17 0.19 0.23 0.25 0.23 0.23 0.26 0.21 0.13 0.08 0.14 0.26 0.28 0.20 0.14
0.00 0.00 0.00 0.00 0.00 0.00 0.01 0.02 0.04 0.06 0.08 0.09 0.09 0.08 0.07 0.06 0.06 0.08 0.09 0.07 0.08 0.09 0.04 0.00 0.00 0.00 0.00 0.01 0.02 0.04 0.09 0.11 0.09 0.10 0.15 0.21 0.23 0.22 0.19 0.20 0.20 0.21 0.15
0.00 0.00 0.00 0.00 0.03 0.07 0.07 0.06 0.05 0.04 0.04 0.03 0.02 0.02 0.01 0.01 0.01 0.01 0.01 0.02 0.04 0.04 0.02 0.00 0.00 0.00 0.00 0.00 0.00 0.00 0.01 0.02 0.02 0.02 0.03 0.07 0.14 0.18 0.21 0.19 0.16 0.12 0.12
0.01 0.02 0.04 0.09 0.11 0.07 0.04 0.03 0.02 0.00 0.00 0.00 0.00 0.00 0.00 0.00 0.00 0.00 0.00 0.00 0.00 0.00 0.00 0.00 0.00 0.00 0.00 0.00 0.00 0.00 0.00 0.00 0.00 0.00 0.00 0.01 0.02 0.05 0.09 0.12 0.12 0.11 0.11
0.04 0.08 0.12 0.08 0.03 0.01 0.00 0.00 0.00 0.00 0.00 0.00 0.00 0.00 0.00 0.00 0.00 0.00 0.00 0.00 0.00 0.00 0.00 0.01 0.00 0.00 0.00 0.00 0.00 0.00 0.00 0.00 0.00 0.00 0.00 0.00 0.00 0.00 0.01 0.02 0.02 0.03 0.02
0.06 0.06 0.04 0.02 0.01 0.00 0.00 0.00 0.00 0.00 0.00 0.00 0.00 0.00 0.00 0.00 0.00 0.00 0.00 0.00 0.00 0.00 0.01 0.01 0.00 0.00 0.00 0.00 0.00 0.00 0.00 0.00 0.00 0.00 0.00 0.00 0.00 0.00 0.00 0.00 0.00 0.00 0.00
0.04 0.03 0.03 0.02 0.01 0.00 0.00 0.00 0.00 0.00 0.00 0.00 0.00 0.00 0.00 0.00 0.00 0.01 0.01 0.00 0.01 0.01 0.01 0.02 0.01 0.00 0.00 0.00 0.00 0.00 0.00 0.00 0.00 0.00 0.00 0.00 0.00 0.00 0.00 0.00 0.00 0.00 0.00
0.05 0.06 0.04 0.04 0.01 0.00 0.00 0.00 0.00 0.00 0.00 0.00 0.00 0.00 0.00 0.00 0.00 0.00 0.00 0.00 0.01 0.02 0.04 0.04 0.04 0.02 0.01 0.00 0.01 0.01 0.02 0.02 0.02 0.01 0.01 0.01 0.01 0.01 0.00 0.00 0.00 0.00 0.00
0.06 0.03 0.01 0.00 0.00 0.00 0.00 0.00 0.00 0.00 0.00 0.00 0.00 0.00 0.00 0.00 0.00 0.00 0.00 0.00 0.00 0.01 0.03 0.05 0.09 0.03 0.02 0.01 0.02 0.02 0.03 0.03 0.03 0.01 0.02 0.03 0.02 0.03 0.01 0.00 0.00 0.00 0.00
0.03 0.00 0.00 0.00 0.00 0.00 0.00 0.00 0.00 0.00 0.00 0.00 0.00 0.00 0.00 0.00 0.00 0.01 0.03 0.04 0.03 0.02 0.02 0.03 0.07 0.05 0.03 0.03 0.06 0.07 0.09 0.13 0.09 0.03 0.02 0.07 0.02 0.03 0.02 0.01 0.00 0.00 0.00
0.00 0.00 0.00 0.00 0.00 0.00 0.00 0.00 0.00 0.00 0.01 0.00 0.00 0.01 0.02 0.02 0.02 0.05 0.16 0.13 0.06 0.02 0.01 0.02 0.04 0.04 0.05 0.05 0.08 0.21 0.25 0.21 0.13 0.03 0.02 0.07 0.04 0.03 0.02 0.01 0.01 0.00 0.00
0.00 0.00 0.00 0.00 0.00 0.00 0.01 0.01 0.01 0.01 0.02 0.02 0.01 0.01 0.01 0.02 0.09 0.15 0.23 0.17 0.12 0.03 0.02 0.02 0.01 0.01 0.01 0.02 0.02 0.10 0.13 0.16 0.09 0.09 0.01 0.06 0.05 0.04 0.07 0.02 0.01 0.01 0.01

GFSMA_prec_precacc24_045.txt.gz
Total_Precipitation_Accumulation
0.00 0.00 0.00 0.00 0.00 0.00 0.00 0.00 0.00 0.00 0.00 0.00 0.00 0.00 0.00 0.00 0.00 0.00 0.00 0.00 0.00 0.00 0.00 0.00 0.00 0.00 0.00 0.00 0.00 0.00 0.01 0.01 0.06 0.18 0.19 0.14 0.16 0.23 0.27 0.26 0.19 0.14 0.09
0.03 0.00 0.00 0.00 0.00 0.00 0.00 0.00 0.00 0.00 0.00 0.00 0.00 0.00 0.00 0.00 0.00 0.00 0.00 0.00 0.00 0.00 0.00 0.00 0.00 0.00 0.00 0.00 0.00 0.00 0.00 0.00 0.01 0.06 0.15 0.18 0.18 0.21 0.23 0.22 0.24 0.27 0.24
0.04 0.01 0.00 0.00 0.00 0.00 0.00 0.00 0.00 0.00 0.00 0.00 0.00 0.00 0.00 0.00 0.00 0.00 0.00 0.00 0.00 0.00 0.00 0.00 0.00 0.00 0.00 0.00 0.00 0.00 0.00 0.00 0.00 0.01 0.02 0.08 0.13 0.18 0.37 0.28 0.27 0.31 0.29
0.03 0.00 0.00 0.00 0.00 0.00 0.00 0.00 0.00 0.00 0.00 0.00 0.00 0.00 0.00 0.00 0.00 0.00 0.00 0.00 0.00 0.00 0.00 0.00 0.00 0.00 0.00 0.00 0.00 0.00 0.00 0.00 0.00 0.00 0.00 0.01 0.06 0.07 0.18 0.36 0.40 0.47 0.52
0.00 0.00 0.00 0.00 0.00 0.00 0.00 0.00 0.00 0.00 0.00 0.00 0.00 0.00 0.00 0.00 0.00 0.00 0.00 0.00 0.00 0.00 0.00 0.00 0.00 0.00 0.00 0.00 0.00 0.00 0.00 0.00 0.00 0.00 0.00 0.01 0.01 0.02 0.07 0.10 0.21 0.45 0.80
0.00 0.00 0.00 0.00 0.00 0.00 0.00 0.00 0.00 0.00 0.00 0.00 0.00 0.00 0.00 0.00 0.00 0.00 0.00 0.00 0.00 0.00 0.00 0.00 0.00 0.00 0.00 0.00 0.00 0.00 0.00 0.00 0.00 0.00 0.01 0.01 0.01 0.01 0.01 0.02 0.06 0.16 0.42
0.00 0.00 0.00 0.00 0.00 0.00 0.00 0.00 0.00 0.00 0.00 0.00 0.01 0.00 0.00 0.00 0.00 0.00 0.00 0.00 0.00 0.00 0.00 0.00 0.00 0.00 0.00 0.00 0.00 0.00 0.00 0.00 0.00 0.01 0.02 0.01 0.00 0.00 0.00 0.00 0.01 0.02 0.11
0.00 0.00 0.00 0.00 0.00 0.00 0.00 0.00 0.00 0.00 0.00 0.00 0.01 0.01 0.00 0.00 0.00 0.00 0.00 0.00 0.00 0.01 0.01 0.01 0.00 0.00 0.00 0.00 0.00 0.00 0.00 0.00 0.00 0.02 0.04 0.04 0.03 0.02 0.02 0.01 0.01 0.00 0.01
0.00 0.00 0.00 0.00 0.00 0.00 0.00 0.00 0.00 0.00 0.00 0.00 0.00 0.02 0.02 0.01 0.01 0.00 0.00 0.02 0.02 0.02 0.02 0.02 0.02 0.00 0.00 0.00 0.00 0.00 0.00 0.00 0.01 0.02 0.03 0.04 0.04 0.03 0.03 0.02 0.02 0.01 0.00
0.00 0.00 0.00 0.00 0.00 0.00 0.00 0.00 0.00 0.00 0.00 0.00 0.00 0.00 0.02 0.05 0.05 0.03 0.00 0.00 0.03 0.05 0.07 0.09 0.10 0.10 0.06 0.04 0.01 0.01 0.00 0.00 0.00 0.01 0.03 0.04 0.07 0.07 0.05 0.03 0.02 0.02 0.01
0.00 0.00 0.00 0.00 0.00 0.00 0.00 0.00 0.00 0.00 0.00 0.00 0.00 0.00 0.01 0.01 0.01 0.03 0.01 0.01 0.03 0.05 0.04 0.07 0.10 0.15 0.20 0.22 0.17 0.11 0.07 0.04 0.02 0.01 0.02 0.03 0.05 0.07 0.09 0.09 0.06 0.04 0.02
0.00 0.00 0.00 0.00 0.00 0.00 0.00 0.00 0.00 0.00 0.00 0.00 0.00 0.00 0.00 0.00 0.00 0.01 0.02 0.02 0.03 0.07 0.04 0.06 0.07 0.09 0.14 0.21 0.27 0.21 0.11 0.08 0.08 0.06 0.06 0.07 0.06 0.06 0.06 0.08 0.12 0.12 0.07
0.00 0.00 0.00 0.00 0.00 0.00 0.00 0.00 0.00 0.01 0.01 0.00 0.00 0.00 0.01 0.02 0.05 0.12 0.17 0.15 0.11 0.12 0.11 0.04 0.05 0.05 0.05 0.12 0.24 0.35 0.32 0.23 0.12 0.09 0.10 0.11 0.13 0.18 0.22 0.17 0.16 0.20 0.28
0.00 0.00 0.00 0.00 0.00 0.00 0.00 0.00 0.01 0.01 0.01 0.01 0.02 0.05 0.09 0.12 0.16 0.22 0.30 0.34 0.28 0.08 0.05 0.08 0.07 0.11 0.11 0.12 0.18 0.21 0.19 0.22 0.30 0.29 0.14 0.07 0.11 0.15 0.21 0.18 0.17 0.15 0.14
0.00 0.00 0.00 0.00 0.00 0.00 0.00 0.00 0.01 0.04 0.07 0.07 0.07 0.10 0.10 0.14 0.15 0.14 0.15 0.20 0.31 0.17 0.02 0.00 0.02 0.05 0.11 0.13 0.17 0.19 0.23 0.25 0.23 0.23 0.26 0.21 0.13 0.08 0.14 0.27 0.30 0.23 0.20
0.00 0.00 0.00 0.00 0.00 0.00 0.01 0.03 0.05 0.06 0.09 0.09 0.08 0.07 0.06 0.06 0.06 0.08 0.09 0.07 0.08 0.10 0.04 0.00 0.00 0.00 0.00 0.01 0.02 0.04 0.09 0.11 0.09 0.10 0.15 0.21 0.23 0.22 0.19 0.21 0.23 0.26 0.26
0.00 0.00 0.00 0.00 0.03 0.06 0.06 0.06 0.05 0.04 0.04 0.03 0.02 0.02 0.01 0.01 0.01 0.01 0.01 0.02 0.04 0.04 0.02 0.00 0.00 0.00 0.00 0.00 0.00 0.00 0.01 0.02 0.02 0.02 0.03 0.07 0.14 0.18 0.21 0.20 0.17 0.18 0.25
0.01 0.02 0.03 0.06 0.06 0.05 0.04 0.03 0.02 0.00 0.00 0.00 0.00 0.00 0.00 0.00 0.00 0.00 0.00 0.00 0.00 0.00 0.00 0.00 0.00 0.00 0.00 0.00 0.00 0.00 0.00 0.00 0.00 0.00 0.00 0.01 0.02 0.05 0.09 0.12 0.14 0.16 0.21
0.03 0.05 0.07 0.05 0.03 0.01 0.00 0.00 0.00 0.00 0.00 0.00 0.00 0.00 0.00 0.00 0.00 0.00 0.00 0.00 0.00 0.00 0.00 0.02 0.01 0.00 0.00 0.00 0.00 0.00 0.00 0.00 0.00 0.00 0.00 0.00 0.00 0.00 0.01 0.02 0.02 0.05 0.07
0.05 0.05 0.04 0.02 0.01 0.01 0.01 0.01 0.00 0.00 0.00 0.00 0.00 0.00 0.00 0.00 0.00 0.00 0.00 0.00 0.00 0.01 0.01 0.01 0.01 0.00 0.00 0.00 0.00 0.00 0.00 0.00 0.00 0.00 0.00 0.00 0.00 0.00 0.00 0.00 0.00 0.00 0.00
0.03 0.02 0.03 0.02 0.03 0.03 0.01 0.00 0.00 0.00 0.00 0.00 0.00 0.00 0.00 0.00 0.00 0.01 0.01 0.00 0.01 0.01 0.01 0.02 0.01 0.00 0.00 0.00 0.00 0.00 0.01 0.00 0.00 0.00 0.00 0.00 0.00 0.00 0.00 0.00 0.00 0.00 0.01
0.05 0.06 0.04 0.04 0.01 0.00 0.00 0.00 0.00 0.00 0.00 0.00 0.00 0.00 0.00 0.00 0.00 0.00 0.00 0.00 0.01 0.02 0.04 0.04 0.04 0.03 0.01 0.01 0.01 0.01 0.02 0.03 0.02 0.01 0.01 0.01 0.01 0.01 0.00 0.00 0.00 0.00 0.00
0.06 0.03 0.01 0.00 0.00 0.00 0.00 0.00 0.00 0.00 0.00 0.00 0.00 0.00 0.00 0.00 0.00 0.00 0.00 0.00 0.00 0.01 0.03 0.08 0.12 0.05 0.03 0.01 0.02 0.03 0.03 0.04 0.03 0.01 0.02 0.03 0.02 0.02 0.01 0.00 0.00 0.00 0.00
0.03 0.00 0.00 0.00 0.00 0.00 0.00 0.00 0.00 0.00 0.00 0.00 0.00 0.00 0.00 0.00 0.00 0.01 0.04 0.05 0.03 0.02 0.02 0.03 0.09 0.06 0.04 0.04 0.06 0.07 0.10 0.13 0.10 0.03 0.02 0.07 0.02 0.03 0.02 0.01 0.00 0.00 0.00
0.00 0.00 0.00 0.00 0.00 0.00 0.00 0.00 0.00 0.00 0.01 0.00 0.00 0.01 0.02 0.02 0.02 0.06 0.16 0.12 0.05 0.02 0.01 0.03 0.05 0.06 0.07 0.07 0.10 0.22 0.23 0.21 0.13 0.04 0.02 0.07 0.04 0.04 0.02 0.01 0.01 0.00 0.00
0.00 0.00 0.00 0.00 0.00 0.00 0.01 0.01 0.01 0.01 0.02 0.02 0.01 0.01 0.01 0.02 0.09 0.15 0.22 0.17 0.11 0.03 0.02 0.02 0.01 0.01 0.02 0.03 0.01 0.07 0.09 0.14 0.09 0.10 0.01 0.06 0.05 0.04 0.07 0.02 0.01 0.01 0.01

GFSMA_prec_precacc24_048.txt.gz
Total_Precipitation_Accumulation
0.04 0.02 0.01 0.00 0.00 0.00 0.00 0.00 0.00 0.00 0.00 0.00 0.00 0.00 0.00 0.00 0.00 0.00 0.00 0.00 0.00 0.00 0.00 0.00 0.00 0.00 0.00 0.00 0.00 0.00 0.00 0.00 0.02 0.10 0.13 0.12 0.13 0.20 0.26 0.25 0.19 0.15 0.10
0.10 0.04 0.01 0.00 0.00 0.00 0.00 0.00 0.00 0.00 0.00 0.00 0.00 0.00 0.00 0.00 0.00 0.00 0.00 0.00 0.00 0.00 0.00 0.00 0.00 0.00 0.00 0.00 0.00 0.00 0.00 0.00 0.00 0.02 0.09 0.14 0.13 0.14 0.18 0.20 0.22 0.26 0.25
0.12 0.07 0.02 0.00 0.00 0.00 0.00 0.00 0.00 0.00 0.00 0.00 0.00 0.00 0.00 0.00 0.00 0.00 0.00 0.00 0.00 0.00 0.00 0.00 0.00 0.00 0.00 0.00 0.00 0.00 0.00 0.00 0.00 0.00 0.00 0.05 0.10 0.12 0.28 0.22 0.23 0.29 0.27
0.07 0.02 0.00 0.01 0.00 0.00 0.00 0.00 0.00 0.00 0.00 0.00 0.00 0.00 0.00 0.00 0.00 0.00 0.00 0.00 0.00 0.00 0.00 0.00 0.00 0.00 0.00 0.00 0.00 0.00 0.00 0.00 0.00 0.00 0.00 0.00 0.04 0.04 0.13 0.30 0.34 0.43 0.47
0.00 0.00 0.00 0.00 0.00 0.00 0.00 0.00 0.00 0.00 0.00 0.00 0.00 0.00 0.00 0.00 0.00 0.00 0.00 0.00 0.00 0.00 0.00 0.00 0.00 0.00 0.00 0.00 0.00 0.00 0.00 0.00 0.00 0.00 0.00 0.00 0.01 0.02 0.05 0.06 0.15 0.38 0.75
0.00 0.00 0.00 0.00 0.00 0.00 0.00 0.00 0.00 0.00 0.00 0.00 0.00 0.00 0.00 0.00 0.00 0.00 0.00 0.00 0.00 0.00 0.00 0.00 0.00 0.00 0.00 0.00 0.00 0.00 0.00 0.00 0.00 0.01 0.01 0.01 0.01 0.01 0.01 0.01 0.03 0.09 0.32
0.00 0.00 0.00 0.00 0.00 0.00 0.00 0.00 0.00 0.00 0.00 0.00 0.01 0.00 0.00 0.00 0.00 0.00 0.00 0.00 0.00 0.00 0.00 0.00 0.00 0.00 0.00 0.00 0.00 0.00 0.00 0.00 0.00 0.02 0.03 0.02 0.01 0.01 0.00 0.01 0.01 0.01 0.04
0.00 0.00 0.00 0.00 0.00 0.00 0.00 0.00 0.00 0.00 0.00 0.00 0.01 0.01 0.00 0.00 0.00 0.00 0.00 0.00 0.00 0.01 0.01 0.01 0.00 0.00 0.00 0.00 0.00 0.00 0.00 0.00 0.00 0.02 0.04 0.04 0.03 0.02 0.02 0.01 0.01 0.01 0.01
0.00 0.00 0.00 0.00 0.00 0.00 0.00 0.00 0.00 0.00 0.00 0.00 0.00 0.02 0.02 0.01 0.01 0.00 0.00 0.02 0.02 0.02 0.02 0.02 0.02 0.00 0.00 0.00 0.00 0.00 0.00 0.00 0.01 0.02 0.03 0.04 0.04 0.04 0.03 0.02 0.02 0.02 0.02
0.00 0.00 0.00 0.00 0.00 0.00 0.00 0.00 0.00 0.00 0.00 0.00 0.00 0.00 0.02 0.05 0.05 0.03 0.00 0.00 0.03 0.05 0.07 0.09 0.10 0.10 0.06 0.04 0.01 0.01 0.00 0.00 0.00 0.01 0.03 0.04 0.07 0.07 0.05 0.03 0.02 0.02 0.03
0.00 0.00 0.00 0.00 0.00 0.00 0.00 0.00 0.00 0.00 0.00 0.00 0.00 0.00 0.01 0.01 0.01 0.04 0.02 0.01 0.03 0.05 0.04 0.07 0.10 0.15 0.20 0.22 0.17 0.11 0.07 0.04 0.02 0.01 0.02 0.03 0.05 0.07 0.09 0.10 0.06 0.04 0.05
0.00 0.00 0.00 0.00 0.00 0.00 0.00 0.00 0.00 0.00 0.00 0.00 0.00 0.01 0.01 0.01 0.01 0.03 0.06 0.04 0.04 0.07 0.04 0.06 0.07 0.09 0.14 0.21 0.27 0.21 0.11 0.08 0.08 0.06 0.06 0.07 0.06 0.06 0.06 0.08 0.12 0.13 0.08
0.00 0.00 0.00 0.00 0.00 0.00 0.00 0.00 0.00 0.01 0.01 0.02 0.02 0.02 0.03 0.03 0.03 0.06 0.12 0.13 0.11 0.11 0.11 0.04 0.06 0.05 0.06 0.12 0.24 0.35 0.32 0.23 0.12 0.09 0.10 0.11 0.13 0.18 0.22 0.17 0.16 0.21 0.29
0.00 0.00 0.00 0.00 0.00 0.00 0.01 0.01 0.02 0.02 0.02 0.03 0.03 0.03 0.04 0.04 0.06 0.09 0.18 0.24 0.21 0.06 0.05 0.08 0.07 0.11 0.11 0.12 0.18 0.21 0.19 0.22 0.30 0.29 0.14 0.07 0.11 0.15 0.21 0.18 0.18 0.16 0.14
0.00 0.00 0.00 0.00 0.00 0.00 0.00 0.01 0.03 0.05 0.07 0.08 0.09 0.10 0.08 0.10 0.10 0.09 0.11 0.17 0.29 0.17 0.02 0.00 0.02 0.05 0.11 0.13 0.17 0.19 0.23 0.25 0.23 0.23 0.26 0.21 0.13 0.08 0.14 0.27 0.30 0.23 0.21
0.00 0.00 0.00 0.00 0.00 0.00 0.01 0.04 0.05 0.06 0.09 0.10 0.08 0.06 0.05 0.04 0.05 0.07 0.08 0.07 0.09 0.11 0.04 0.00 0.00 0.00 0.00 0.01 0.02 0.04 0.09 0.11 0.09 0.10 0.15 0.21 0.23 0.22 0.19 0.21 0.23 0.26 0.28
0.00 0.00 0.00 0.00 0.01 0.02 0.04 0.06 0.06 0.04 0.04 0.02 0.01 0.01 0.01 0.01 0.01 0.01 0.01 0.02 0.04 0.04 0.02 0.00 0.00 0.00 0.00 0.00 0.00 0.00 0.01 0.02 0.02 0.02 0.03 0.07 0.14 0.18 0.21 0.20 0.17 0.18 0.26
0.00 0.01 0.02 0.03 0.03 0.04 0.05 0.04 0.02 0.01 0.00 0.00 0.00 0.00 0.00 0.00 0.00 0.00 0.00 0.00 0.00 0.00 0.00 0.00 0.00 0.00 0.00 0.00 0.00 0.00 0.00 0.00 0.00 0.00 0.00 0.01 0.02 0.05 0.09 0.12 0.14 0.16 0.21
0.03 0.04 0.05 0.04 0.03 0.02 0.01 0.00 0.00 0.00 0.00 0.00 0.00 0.00 0.00 0.00 0.00 0.00 0.00 0.00 0.00 0.00 0.01 0.02 0.01 0.00 0.00 0.00 0.00 0.00 0.00 0.00 0.00 0.00 0.00 0.00 0.00 0.00 0.01 0.02 0.03 0.05 0.07
0.04 0.04 0.03 0.02 0.01 0.01 0.02 0.01 0.00 0.00 0.00 0.00 0.00 0.00 0.00 0.00 0.00 0.00 0.00 0.00 0.01 0.01 0.01 0.02 0.01 0.00 0.00 0.00 0.00 0.00 0.00 0.00 0.00 0.00 0.00 0.00 0.00 0.00 0.00 0.00 0.00 0.00 0.01
0.01 0.01 0.02 0.02 0.03 0.03 0.01 0.00 0.00 0.00 0.00 0.00 0.00 0.00 0.00 0.00 0.00 0.01 0.01 0.00 0.01 0.02 0.01 0.01 0.01 0.01 0.01 0.00 0.01 0.01 0.01 0.01 0.00 0.00 0.00 0.00 0.00 0.00 0.00 0.00 0.00 0.00 0.01
0.04 0.06 0.04 0.04 0.01 0.00 0.00 0.00 0.00 0.00 0.00 0.00 0.00 0.00 0.00 0.00 0.00 0.00 0.00 0.00 0.01 0.02 0.04 0.05 0.04 0.03 0.02 0.01 0.02 0.02 0.03 0.03 0.03 0.01 0.02 0.02 0.01 0.01 0.00 0.00 0.00 0.00 0.00
0.06 0.03 0.01 0.00 0.00 0.00 0.00 0.00 0.00 0.00 0.00 0.00 0.00 0.00 0.00 0.00 0.00 0.00 0.00 0.00 0.00 0.01 0.04 0.10 0.14 0.06 0.04 0.03 0.03 0.04 0.03 0.05 0.04 0.02 0.04 0.05 0.03 0.02 0.01 0.00 0.00 0.00 0.00
0.03 0.01 0.00 0.00 0.00 0.00 0.00 0.00 0.00 0.00 0.00 0.00 0.00 0.00 0.00 0.00 0.00 0.01 0.04 0.06 0.03 0.02 0.02 0.03 0.10 0.08 0.06 0.05 0.09 0.10 0.11 0.14 0.10 0.03 0.03 0.08 0.02 0.02 0.02 0.01 0.00 0.00 0.00
0.00 0.00 0.00 0.00 0.00 0.00 0.00 0.00 0.00 0.00 0.00 0.00 0.00 0.01 0.01 0.02 0.02 0.06 0.16 0.11 0.04 0.02 0.01 0.02 0.05 0.06 0.07 0.08 0.12 0.25 0.25 0.23 0.14 0.04 0.04 0.09 0.04 0.04 0.02 0.01 0.01 0.00 0.00
0.00 0.00 0.00 0.00 0.00 0.00 0.01 0.01 0.01 0.01 0.01 0.01 0.01 0.01 0.01 0.02 0.08 0.15 0.18 0.15 0.11 0.04 0.02 0.02 0.01 0.01 0.02 0.03 0.03 0.09 0.09 0.13 0.09 0.10 0.04 0.09 0.05 0.05 0.08 0.03 0.01 0.01 0.01